When you browse on this site, cookies collect data to enhance your experience and personalize the content and advertising you see.
Visit our Privacy Policy to learn more. By continuing to use the site, you agree to this use of cookies and data.
  • In United Kingdom
  • List of Countries
  • For 7 days
  • Water Temperature
  • Satellite Maps
  • Weather Map
  • Weather Widgets
  • user-avatar
    Login

    Hourly Weather Wakefield

    Today, 22 January, Tuesday

    Time Temperature Precipitation Wind Pressure Humidity
    00:00 +3°C° 0 mm 5 mps 745 mmHg 85%
    01:00 +3°C° 0.3 mm 5 mps 745 mmHg 83%
    02:00 +2°C° 0.3 mm 5 mps 744 mmHg 81%
    03:00 +2°C° 0.3 mm 5 mps 744 mmHg 79%
    04:00 +3°C° 0 mm 4 mps 743 mmHg 79%
    05:00 +1°C° 0 mm 4 mps 743 mmHg 80%
    06:00 +1°C° 0 mm 3 mps 743 mmHg 80%
    07:00 +1°C° 0 mm 3 mps 743 mmHg 80%
    08:00 +1°C° 0 mm 3 mps 743 mmHg 80%
    09:00 +1°C° 0 mm 3 mps 743 mmHg 80%
    10:00 +2°C° 0.1 mm 3 mps 743 mmHg 76%
    11:00 +3°C° 0.1 mm 3 mps 743 mmHg 72%
    12:00 +3°C° 0.1 mm 3 mps 742 mmHg 68%
    13:00 +3°C° 0.2 mm 3 mps 742 mmHg 69%
    14:00 +3°C° 0.2 mm 3 mps 742 mmHg 70%
    15:00 +3°C° 0.2 mm 3 mps 742 mmHg 71%
    16:00 +2°C° 0.1 mm 3 mps 741 mmHg 73%
    17:00 +2°C° 0.1 mm 3 mps 741 mmHg 74%
    18:00 +1°C° 0.1 mm 3 mps 741 mmHg 76%
    19:00 +1°C° 0 mm 3 mps 741 mmHg 76%
    20:00 +1°C° 0 mm 3 mps 741 mmHg 75%
    21:00 0°C° 0 mm 3 mps 741 mmHg 75%
    22:00 0°C° 0 mm 3 mps 741 mmHg 76%
    23:00 -1°C° 0 mm 2 mps 741 mmHg 77%

    Tomorrow, 23 January, Wednesday

    Time Temperature Precipitation Wind Pressure Humidity
    00:00 -1°C° 0 mm 2 mps 741 mmHg 78%
    01:00 -1°C° 0 mm 2 mps 741 mmHg 78%
    02:00 -1°C° 0 mm 2 mps 741 mmHg 78%
    03:00 -2°C° 0 mm 2 mps 742 mmHg 78%
    04:00 -2°C° 0 mm 2 mps 742 mmHg 77%
    05:00 -2°C° 0 mm 3 mps 743 mmHg 75%
    06:00 -2°C° 0 mm 3 mps 743 mmHg 74%
    07:00 -2°C° 0 mm 3 mps 744 mmHg 73%
    08:00 -2°C° 0 mm 3 mps 744 mmHg 71%
    09:00 -2°C° 0 mm 3 mps 745 mmHg 70%
    10:00 -1°C° 0 mm 3 mps 746 mmHg 69%
    11:00 0°C° 0 mm 3 mps 746 mmHg 67%
    12:00 +1°C° 0 mm 3 mps 747 mmHg 66%
    13:00 +1°C° 0 mm 3 mps 747 mmHg 67%
    14:00 +2°C° 0 mm 3 mps 747 mmHg 68%
    15:00 +2°C° 0 mm 3 mps 748 mmHg 69%
    16:00 +2°C° 0 mm 2 mps 748 mmHg 70%
    17:00 +1°C° 0 mm 2 mps 749 mmHg 72%
    18:00 -1°C° 0 mm 2 mps 749 mmHg 73%
    19:00 +1°C° 0 mm 1 mps 750 mmHg 72%
    20:00 +1°C° 0 mm 1 mps 750 mmHg 70%
    21:00 +1°C° 0 mm 1 mps 751 mmHg 69%
    22:00 +1°C° 0 mm 1 mps 751 mmHg 67%
    23:00 +1°C° 0 mm 1 mps 752 mmHg 65%

    Day after tomorrow, 24 January, Thursday

    Time Temperature Precipitation Wind Pressure Humidity
    00:00 +1°C° 0 mm 1 mps 752 mmHg 63%
    01:00 +1°C° 0 mm 1 mps 752 mmHg 64%
    02:00 +1°C° 0 mm 1 mps 752 mmHg 65%
    03:00 -1°C° 0 mm 2 mps 753 mmHg 65%
    04:00 -1°C° 0 mm 2 mps 753 mmHg 70%
    05:00 -1°C° 0 mm 2 mps 753 mmHg 75%
    06:00 -1°C° 0 mm 2 mps 753 mmHg 80%
    07:00 -1°C° 0 mm 2 mps 753 mmHg 83%
    08:00 -1°C° 0 mm 2 mps 753 mmHg 85%
    09:00 +1°C° 0 mm 2 mps 754 mmHg 88%
    10:00 +2°C° 0 mm 2 mps 754 mmHg 85%
    11:00 +3°C° 0 mm 2 mps 754 mmHg 83%
    12:00 +4°C° 0 mm 2 mps 754 mmHg 80%
    13:00 +4°C° 0 mm 2 mps 754 mmHg 81%
    14:00 +4°C° 0 mm 2 mps 754 mmHg 81%
    15:00 +4°C° 0 mm 2 mps 753 mmHg 81%
    16:00 +4°C° 0.2 mm 2 mps 753 mmHg 85%
    17:00 +3°C° 0.2 mm 2 mps 753 mmHg 88%
    18:00 +3°C° 0.2 mm 2 mps 753 mmHg 91%
    19:00 +3°C° 0.1 mm 2 mps 753 mmHg 92%
    20:00 +3°C° 0.1 mm 2 mps 753 mmHg 93%
    21:00 +4°C° 0.1 mm 2 mps 753 mmHg 94%
    22:00 +4°C° 0 mm 2 mps 753 mmHg 95%
    23:00 +4°C° 0 mm 2 mps 753 mmHg 96%

    25 January, Friday

    Time Temperature Precipitation Wind Pressure Humidity
    00:00 +4°C° 0 mm 2 mps 753 mmHg 97%
    01:00 +5°C° 0 mm 2 mps 753 mmHg 96%
    02:00 +5°C° 0 mm 3 mps 753 mmHg 96%
    03:00 +5°C° 0 mm 3 mps 753 mmHg 96%
    04:00 +5°C° 0 mm 3 mps 753 mmHg 95%
    05:00 +7°C° 0 mm 3 mps 753 mmHg 95%
    06:00 +6°C° 0 mm 4 mps 753 mmHg 94%
    07:00 +6°C° 0 mm 4 mps 753 mmHg 94%
    08:00 +6°C° 0 mm 4 mps 753 mmHg 94%
    09:00 +6°C° 0 mm 4 mps 753 mmHg 94%
    10:00 +6°C° 0 mm 4 mps 753 mmHg 88%
    11:00 +7°C° 0 mm 5 mps 752 mmHg 83%
    12:00 +8°C° 0 mm 5 mps 752 mmHg 78%
    13:00 +8°C° 0 mm 5 mps 751 mmHg 78%
    14:00 +7°C° 0 mm 5 mps 751 mmHg 79%
    15:00 +7°C° 0 mm 5 mps 750 mmHg 79%
    16:00 +7°C° 0.1 mm 5 mps 749 mmHg 81%
    17:00 +7°C° 0.1 mm 5 mps 749 mmHg 84%
    18:00 +7°C° 0.1 mm 5 mps 748 mmHg 87%
    19:00 +7°C° 0.7 mm 5 mps 748 mmHg 88%
    20:00 +7°C° 0.7 mm 4 mps 747 mmHg 90%
    21:00 +7°C° 0.7 mm 4 mps 747 mmHg 92%
    22:00 +6°C° 0.1 mm 4 mps 746 mmHg 89%
    23:00 +5°C° 0.1 mm 4 mps 746 mmHg 86%

    26 January, Saturday

    Time Temperature Precipitation Wind Pressure Humidity
    00:00 +4°C° 0.1 mm 3 mps 746 mmHg 82%
    01:00 +4°C° 0 mm 3 mps 746 mmHg 81%
    02:00 +3°C° 0 mm 3 mps 745 mmHg 79%
    03:00 +3°C° 0 mm 3 mps 745 mmHg 77%
    04:00 +3°C° 0 mm 3 mps 745 mmHg 78%
    05:00 +3°C° 0 mm 3 mps 745 mmHg 79%
    06:00 +3°C° 0 mm 3 mps 745 mmHg 79%
    07:00 +2°C° 0 mm 3 mps 745 mmHg 78%
    08:00 +2°C° 0 mm 3 mps 745 mmHg 77%
    09:00 +2°C° 0 mm 3 mps 746 mmHg 76%
    10:00 +3°C° 0 mm 4 mps 746 mmHg 71%
    11:00 +4°C° 0 mm 4 mps 746 mmHg 67%
    12:00 +3°C° 0 mm 5 mps 746 mmHg 62%
    13:00 +3°C° 0 mm 5 mps 746 mmHg 63%
    14:00 +3°C° 0 mm 5 mps 745 mmHg 64%
    15:00 +3°C° 0 mm 5 mps 745 mmHg 65%
    16:00 +4°C° 0 mm 4 mps 746 mmHg 68%
    17:00 +3°C° 0 mm 4 mps 746 mmHg 72%
    18:00 +1°C° 0 mm 4 mps 747 mmHg 76%
    19:00 +1°C° 0 mm 4 mps 747 mmHg 75%
    20:00 +1°C° 0 mm 4 mps 747 mmHg 75%
    21:00 0°C° 0 mm 4 mps 748 mmHg 75%
    22:00 0°C° 0 mm 4 mps 748 mmHg 74%
    23:00 0°C° 0 mm 4 mps 749 mmHg 73%

    27 January, Sunday

    Time Temperature Precipitation Wind Pressure Humidity
    00:00 0°C° 0 mm 4 mps 749 mmHg 72%
    01:00 -1°C° 0 mm 4 mps 749 mmHg 71%
    02:00 -1°C° 0 mm 4 mps 749 mmHg 70%
    03:00 -1°C° 0 mm 4 mps 750 mmHg 69%
    04:00 0°C° 0 mm 3 mps 750 mmHg 69%
    05:00 0°C° 0 mm 3 mps 750 mmHg 69%
    06:00 -1°C° 0 mm 3 mps 750 mmHg 69%
    07:00 0°C° 0 mm 3 mps 750 mmHg 68%
    08:00 +1°C° 0 mm 2 mps 750 mmHg 66%
    09:00 +1°C° 0 mm 2 mps 750 mmHg 65%
    10:00 +2°C° 0 mm 2 mps 750 mmHg 64%
    11:00 +2°C° 0 mm 3 mps 750 mmHg 64%
    12:00 +4°C° 0 mm 3 mps 750 mmHg 63%
    13:00 +4°C° 0 mm 3 mps 750 mmHg 62%
    14:00 +4°C° 0 mm 2 mps 749 mmHg 61%
    15:00 +4°C° 0 mm 2 mps 749 mmHg 60%
    16:00 +3°C° 0 mm 2 mps 749 mmHg 65%
    17:00 +3°C° 0 mm 1 mps 750 mmHg 69%
    18:00 +2°C° 0 mm 1 mps 750 mmHg 74%
    19:00 +2°C° 0 mm 1 mps 750 mmHg 75%
    20:00 +2°C° 0 mm 1 mps 750 mmHg 76%
    21:00 +1°C° 0 mm 0 mps 750 mmHg 77%
    22:00 +2°C° 0 mm 1 mps 750 mmHg 79%
    23:00 +1°C° 0 mm 2 mps 750 mmHg 80%
    Show more